Knoxville, TN

7:35 AM EDT on March 27, 2017 (GMT -0400)
McGhee Tyson

Weather History for KTYS - July, 2014

Change the Weather History Date:

Saturday, July 26, 2014

  Actual Average Record
Temperature  
Mean Temperature 74 °F 78 °F  
Max Temperature 86 °F 88 °F 99 °F (1952)
Min Temperature 62 °F 69 °F 56 °F (1911)
Degree Days  
Heating Degree Days 0 0  
Month to date heating degree days 0 0  
Since 1 June heating degree days 0 4  
Since 1 July heating degree days 0 0  
Cooling Degree Days 9 14  
Month to date cooling degree days 282 354  
Year to date cooling degree days 817 821  
Since 1 June cooling degree days 612 659  
Growing Degree Days 24 (Base 50)    
Moisture  
Dew Point 65 °F    
Average Humidity 76    
Maximum Humidity 100    
Minimum Humidity 51    
Precipitation  
Precipitation 0.01 in 0.16 in 3.27 in (2004)
Month to date precipitation 3.50 4.36  
Year to date precipitation 24.08 29.61  
Snow  
Snow 0.00 in 0.00 in - ()
Month to date snowfall 0.0 0.0  
Since 1 June snowfall 0.0 0.0  
Since 1 July snowfall 0.0 0.0  
Snow Depth 0.00 in    
Sea Level Pressure  
Sea Level Pressure 30.00 in    
Wind  
Wind Speed 5 mph (SW)    
Max Wind Speed 14 mph    
Max Gust Speed 17 mph    
Visibility 10 miles    
Events Rain    
T = Trace of Precipitation, MM = Missing Value Source: NWS Daily Summary

Daily Weather History Graph

Daily Weather History Graph

Search for Another Location

Airport or City:

Trip Planner

Search our weather history database for the weather conditions in past years. The results will help you decide how hot, cold, wet, or windy it might be!

Date:

Astronomy

Jul. 26, 2014 Rise Set
Actual Time 6:39 AM EDT 8:45 PM EDT
Civil Twilight 6:10 AM EDT 9:13 PM EDT
Nautical Twilight 5:35 AM EDT 9:48 PM EDT
Astronomical Twilight 4:57 AM EDT 10:26 PM EDT
Moon 6:28 AM EDT (7/26) 8:22 PM EDT (7/26)
Length of Visible Light 15h 03m
Length of Day
14h 06m
Waning Crescent, 0% of the Moon is Illuminated
Jul 26
Waning Crescent
Jul 26
New
Aug 3
First Quarter
Aug 10
Full
Aug 17
Last Quarter

Hourly Weather History & Observations

Time (EDT) Temp. Heat Index Dew Point Humidity Pressure Visibility Wind Dir Wind Speed Gust Speed Precip Events Conditions
1:53 AM 68.0 °F - 63.0 °F 84% 30.01 in 10.0 mi NNE 3.5 mph - N/A   Mostly Cloudy
2:53 AM 66.9 °F - 63.0 °F 87% 29.99 in 10.0 mi Calm Calm - N/A   Scattered Clouds
3:53 AM 62.1 °F - 61.0 °F 96% 29.99 in 10.0 mi SW 3.5 mph - N/A   Scattered Clouds
4:53 AM 66.0 °F - 64.0 °F 93% 30.00 in 10.0 mi West 3.5 mph - N/A   Partly Cloudy
5:53 AM 63.0 °F - 61.0 °F 93% 30.02 in 9.0 mi East 3.5 mph - N/A   Partly Cloudy
6:53 AM 63.0 °F - 62.1 °F 97% 30.02 in 8.0 mi ESE 4.6 mph - N/A   Partly Cloudy
7:53 AM 66.0 °F - 63.0 °F 90% 30.03 in 8.0 mi ENE 3.5 mph - N/A   Mostly Cloudy
8:53 AM 69.8 °F - 64.4 °F 83% 30.07 in 10.0 mi Calm Calm - N/A   Mostly Cloudy
9:53 AM 73.9 °F - 64.0 °F 71% 30.05 in 10.0 mi Calm Calm - N/A   Scattered Clouds
11:53 AM 80.1 °F 81.9 °F 64.9 °F 60% 30.04 in 10.0 mi Variable 4.6 mph - N/A   Mostly Cloudy
1:53 PM 82.0 °F 83.8 °F 64.9 °F 56% 30.02 in 10.0 mi Variable 3.5 mph - N/A   Mostly Cloudy
2:53 PM 84.0 °F 86.3 °F 66.0 °F 55% 29.99 in 10.0 mi Variable 5.8 mph - N/A   Scattered Clouds
3:53 PM 84.0 °F 85.8 °F 64.9 °F 53% 29.98 in 10.0 mi WSW 8.1 mph - N/A   Scattered Clouds
4:53 PM 84.9 °F 87.1 °F 66.0 °F 53% 29.95 in 10.0 mi West 10.4 mph - N/A   Scattered Clouds
5:53 PM 84.2 °F 86.6 °F 66.2 °F 55% 29.97 in 10.0 mi West 11.5 mph - N/A   Scattered Clouds
6:53 PM 84.0 °F 85.8 °F 64.9 °F 53% 29.94 in 10.0 mi WSW 11.5 mph - N/A   Scattered Clouds
8:53 PM 77.0 °F - 66.9 °F 71% 29.97 in 10.0 mi SW 8.1 mph - N/A   Partly Cloudy
9:53 PM 75.9 °F - 66.9 °F 74% 29.97 in 10.0 mi SSW 8.1 mph - N/A   Scattered Clouds
10:53 PM 78.1 °F - 66.0 °F 66% 29.98 in 10.0 mi SW 5.8 mph - N/A   Scattered Clouds
11:53 PM 75.9 °F - 69.1 °F 79% 29.99 in 10.0 mi SW 9.2 mph - 0.01 in Rain Light Rain